STARLINK-33785, 63516

Orbit data source: Space-Track

STARLINK-33785, 63516 is a payload satellite owned by SpaceX/Seattle (US) in LEO that was launched on Mon, 07 Apr 2025 UTC via an FALCON 9 launch vehicle from the Air Force Western Test Range (AFWTR). Payload-class satellites include a variety of spacecraft equipped with specific instruments for various scientific and technological missions. These include communications satellites like Starlink; space stations such as the ISS; scientific satellites like the Hubble; Earth observation satellites from companies like Planet Labs, Umbra, and HawkEye 360; GPS; miniature CubeSats for education and research; and military/defense satellites.

Loading next visibility...
Identifier
63516, 2025-071Z
Orbit
LEO
Country
Flag of USUS
Related business
Manufacturer
SpaceX/Seattle
Mission
Operational Commercial Communications
Bus & Motor
STARLINK V2MO, Unknown motor
Mass
575 kg wet, ~530 kg dry
Launch date (UTC)
2025-04-07 (1 year ago)
Launch vehicle
FALCON 9
Launch site
Air Force Western Test Range (AFWTR)
Object type
Payload
Rocket body
Debris
Shape & HBR
Box + 2 Pan, 17.7 m
Radar Cross Section
36.964 m², Large (>1 m²)

Expand to show TLE details & history
Last TLE update: 4 hours ago

TLE from 4 hours ago
0 STARLINK-33785
1 63516U 25071Z   26127.16667823  .00062827  00000-0  20218-2 0  9993
2 63516  53.1585 228.4947 0001389  97.1472 121.6089 15.31661417  5857
Epoch: 2026-05-07T04:00Z
TLE epoch observation values (Epoch: 2026-05-07T04:00:00.999Z)
Latitude
-30.2818°
Longitude
149.26393°
Altitude
480.605 km
Speed
7.625 km/s
True Right ascension
04h 57m 08s
True Declination
-30° 07' 34"
Sunlit
Object was in daylight at epoch
Visualization orbit readout
Latitude
Unknown
Longitude
Unknown
Altitude
Unknown
Speed
Unknown
Apparent Right ascension
Unknown
Apparent Declination
Unknown
Sunlit
N/A
Visualization observer readout
Local Sidereal Time
16:18:09
Azimuth
Unknown
Elevation
Unknown
Doppler factor
Unknown
Orbital elements
Apogee altitude
472.063 km
Perigee altitude
470.16 km
Semi-major axis
6,849.249 km
Eccentricity
0.00014
Inclination
53.1585°
RAAN
228.4947°
Arg. of periapsis
97.1472°
True anomaly
121.62245°
Mean anomaly
121.6089°
Eccentric anomaly
121.61568°
Mean motion
3.82894 °/min
Orbital period
94.02 mins
BSTAR
0.0020218
Loading maneuver chart data...
Computing Atmospheric mass density...
Loading historical data...
Loading historical data...
Loading historical data...
Loading historical data...
Loading historical data...
Loading historical data...
Loading historical data...

Documentation

Showing up to 5 results
|